{"data":{"norad_id":67947,"intl_designator":"2026-037R","name":"STARLINK-36920","alt_names":[],"object_type":"PAYLOAD","status":"ACTIVE","operator":null,"country":"US","launch_date":"2026-02-24","launch_site_code":"AFETR","launch_vehicle":null,"mission":null,"orbit_class":"UNKNOWN","rcs_meters":null,"size_class":null,"mass_kg":null,"dimensions":null,"purposes":["comms"],"wikipedia_slug":null,"has_3d_model":false,"image_url":null,"decayed_at":null,"tle_current":{"epoch":"2026-09-19T11:41:45.314592Z","epoch_age_seconds":150715,"freshness":"FRESH","line1":"1 67947U 26037R   26262.48733003  .00014723  00000+0  54319-3 0  9998","line2":"2 67947  43.0055 175.9007 0001445 261.9120  98.1568 15.27597132 32987","mean_motion":15.27597132,"eccentricity":0.0001445,"inclination_deg":43.0055,"raan_deg":175.9007,"arg_perigee_deg":261.912,"mean_anomaly_deg":98.1568,"bstar":0.00054319,"rev_number":3298,"period_min":94.265691512178,"perigee_km":482.0063631697,"apogee_km":483.98923112607,"semimajor_km":6861.1347971479,"source":"CELESTRAK","updated_at":"2026-09-20T09:00:43.709883Z"}}}